Location: Unspecified
(42.3650°N, 71.1030°W)
Time: 11:25:57
(UTC+00:00)

Transit 4A - Pass Details

Date: 03 July 2024
Orbit: 870 x 973 km, 66.8° (Epoch: 18 July)

Event Time Altitude Azimuth Distance (km) Brightness Sun altitude
Rises 03:05:29 0° 279° (W) 3,456 11.4 -20.5°
Reaches altitude 10° 03:10:08 10° 313° (NW) 2,523 11.1 -20.9°
Maximum altitude 03:11:52 11° 330° (NNW) 2,436 11.2 -21.0°
Drops below altitude 10° 03:13:38 10° 348° (NNW) 2,532 11.3 -21.1°
Sets 03:18:21 0° 22° (NNE) 3,490 11.6 -21.5°
